• In Netherlands
  • List of Countries
  • For 7 days
  • Water Temperature
  • Satellite Maps
  • Weather Map
  • Weather Widgets
  • user-avatar
    Login

    Hourly Weather Strizhi

    Today, 15 August, Wednesday

    Time Temperature Precipitation Wind Pressure Humidity
    00:00 +26°C° 0 mm 3 mps 756 mmHg 40%
    01:00 +25°C° 0 mm 3 mps 756 mmHg 42%
    02:00 +24°C° 0 mm 3 mps 756 mmHg 44%
    03:00 +24°C° 0 mm 3 mps 756 mmHg 46%
    04:00 +22°C° 0 mm 3 mps 756 mmHg 47%
    05:00 +22°C° 0 mm 3 mps 756 mmHg 47%
    06:00 +22°C° 0 mm 3 mps 756 mmHg 48%
    07:00 +26°C° 0 mm 4 mps 756 mmHg 43%
    08:00 +28°C° 0 mm 4 mps 756 mmHg 38%
    09:00 +30°C° 0 mm 4 mps 756 mmHg 33%
    10:00 +33°C° 0 mm 4 mps 756 mmHg 30%
    11:00 +34°C° 0 mm 4 mps 756 mmHg 27%
    12:00 +35°C° 0 mm 4 mps 756 mmHg 25%
    13:00 +36°C° 0 mm 4 mps 756 mmHg 24%
    14:00 +36°C° 0 mm 4 mps 756 mmHg 22%
    15:00 +37°C° 0 mm 4 mps 755 mmHg 21%
    16:00 +36°C° 0 mm 4 mps 755 mmHg 22%
    17:00 +36°C° 0 mm 4 mps 755 mmHg 23%
    18:00 +35°C° 0 mm 5 mps 755 mmHg 24%
    19:00 +33°C° 0 mm 5 mps 755 mmHg 27%
    20:00 +30°C° 0 mm 5 mps 755 mmHg 29%
    21:00 +28°C° 0 mm 4 mps 755 mmHg 32%
    22:00 +28°C° 0 mm 4 mps 755 mmHg 33%
    23:00 +27°C° 0 mm 4 mps 755 mmHg 34%

    Tomorrow, 16 August, Thursday

    Time Temperature Precipitation Wind Pressure Humidity
    00:00 +26°C° 0 mm 4 mps 756 mmHg 35%
    01:00 +26°C° 0 mm 4 mps 755 mmHg 37%
    02:00 +25°C° 0 mm 4 mps 755 mmHg 38%
    03:00 +25°C° 0 mm 3 mps 755 mmHg 40%
    04:00 +24°C° 0 mm 3 mps 755 mmHg 41%
    05:00 +24°C° 0 mm 3 mps 755 mmHg 43%
    06:00 +24°C° 0 mm 3 mps 755 mmHg 44%
    07:00 +26°C° 0 mm 3 mps 755 mmHg 39%
    08:00 +29°C° 0 mm 3 mps 755 mmHg 34%
    09:00 +31°C° 0 mm 3 mps 756 mmHg 29%
    10:00 +34°C° 0 mm 4 mps 755 mmHg 26%
    11:00 +35°C° 0 mm 4 mps 755 mmHg 23%
    12:00 +37°C° 0 mm 4 mps 755 mmHg 19%
    13:00 +37°C° 0 mm 4 mps 755 mmHg 19%
    14:00 +38°C° 0 mm 4 mps 754 mmHg 18%
    15:00 +38°C° 0 mm 4 mps 754 mmHg 17%
    16:00 +37°C° 0 mm 4 mps 754 mmHg 18%
    17:00 +37°C° 0 mm 4 mps 753 mmHg 19%
    18:00 +36°C° 0 mm 4 mps 753 mmHg 20%
    19:00 +34°C° 0 mm 4 mps 753 mmHg 23%
    20:00 +32°C° 0 mm 4 mps 754 mmHg 27%
    21:00 +29°C° 0 mm 3 mps 754 mmHg 30%
    22:00 +28°C° 0 mm 3 mps 754 mmHg 31%
    23:00 +28°C° 0 mm 3 mps 754 mmHg 32%

    Day after tomorrow, 17 August, Friday

    Time Temperature Precipitation Wind Pressure Humidity
    00:00 +27°C° 0 mm 3 mps 754 mmHg 34%
    01:00 +26°C° 0 mm 3 mps 754 mmHg 36%
    02:00 +26°C° 0 mm 3 mps 754 mmHg 38%
    03:00 +25°C° 0 mm 2 mps 754 mmHg 39%
    04:00 +25°C° 0 mm 2 mps 754 mmHg 41%
    05:00 +25°C° 0 mm 2 mps 754 mmHg 42%
    06:00 +25°C° 0 mm 2 mps 754 mmHg 44%
    07:00 +27°C° 0 mm 2 mps 754 mmHg 38%
    08:00 +30°C° 0 mm 3 mps 754 mmHg 33%
    09:00 +33°C° 0 mm 3 mps 754 mmHg 27%
    10:00 +35°C° 0 mm 4 mps 754 mmHg 25%
    11:00 +36°C° 0 mm 4 mps 754 mmHg 22%
    12:00 +37°C° 0 mm 5 mps 753 mmHg 19%
    13:00 +39°C° 0 mm 5 mps 753 mmHg 19%
    14:00 +39°C° 0 mm 5 mps 753 mmHg 18%
    15:00 +39°C° 0 mm 5 mps 752 mmHg 18%
    16:00 +37°C° 0 mm 5 mps 752 mmHg 19%
    17:00 +37°C° 0 mm 5 mps 752 mmHg 19%
    18:00 +36°C° 0 mm 5 mps 752 mmHg 20%
    19:00 +34°C° 0 mm 5 mps 752 mmHg 23%
    20:00 +32°C° 0 mm 5 mps 752 mmHg 26%
    21:00 +30°C° 0 mm 4 mps 753 mmHg 29%
    22:00 +29°C° 0 mm 5 mps 753 mmHg 30%
    23:00 +29°C° 0 mm 5 mps 753 mmHg 31%

    18 August, Saturday

    Time Temperature Precipitation Wind Pressure Humidity
    00:00 +28°C° 0 mm 5 mps 752 mmHg 33%
    01:00 +28°C° 0 mm 5 mps 752 mmHg 34%
    02:00 +27°C° 0 mm 4 mps 752 mmHg 35%
    03:00 +27°C° 0 mm 4 mps 752 mmHg 37%
    04:00 +26°C° 0 mm 4 mps 753 mmHg 38%
    05:00 +26°C° 0 mm 4 mps 753 mmHg 38%
    06:00 +26°C° 0 mm 4 mps 753 mmHg 39%
    07:00 +28°C° 0 mm 4 mps 753 mmHg 36%
    08:00 +29°C° 0 mm 4 mps 753 mmHg 33%
    09:00 +32°C° 0 mm 5 mps 754 mmHg 30%
    10:00 +33°C° 0 mm 5 mps 754 mmHg 27%
    11:00 +35°C° 0 mm 5 mps 753 mmHg 24%
    12:00 +36°C° 0 mm 5 mps 753 mmHg 22%
    13:00 +36°C° 0 mm 5 mps 753 mmHg 23%
    14:00 +36°C° 0 mm 5 mps 753 mmHg 24%
    15:00 +35°C° 0 mm 5 mps 753 mmHg 25%
    16:00 +35°C° 0 mm 6 mps 753 mmHg 28%
    17:00 +34°C° 0 mm 6 mps 754 mmHg 30%
    18:00 +33°C° 0 mm 6 mps 754 mmHg 33%
    19:00 +32°C° 0 mm 6 mps 754 mmHg 38%
    20:00 +29°C° 0 mm 5 mps 755 mmHg 42%
    21:00 +27°C° 0 mm 5 mps 755 mmHg 46%
    22:00 +26°C° 0 mm 5 mps 755 mmHg 45%
    23:00 +26°C° 0 mm 5 mps 755 mmHg 45%

    19 August, Sunday

    Time Temperature Precipitation Wind Pressure Humidity
    00:00 +24°C° 0 mm 6 mps 755 mmHg 44%
    01:00 +23°C° 0 mm 5 mps 756 mmHg 45%
    02:00 +22°C° 0 mm 5 mps 756 mmHg 45%
    03:00 +21°C° 0 mm 5 mps 756 mmHg 46%
    04:00 +21°C° 0 mm 5 mps 756 mmHg 47%
    05:00 +20°C° 0 mm 5 mps 756 mmHg 49%
    06:00 +19°C° 0 mm 5 mps 757 mmHg 50%
    07:00 +21°C° 0 mm 5 mps 757 mmHg 47%
    08:00 +23°C° 0 mm 5 mps 757 mmHg 43%
    09:00 +26°C° 0 mm 6 mps 757 mmHg 40%
    10:00 +27°C° 0 mm 6 mps 757 mmHg 35%
    11:00 +28°C° 0 mm 5 mps 757 mmHg 31%
    12:00 +30°C° 0 mm 5 mps 756 mmHg 26%
    13:00 +30°C° 0 mm 5 mps 756 mmHg 25%
    14:00 +32°C° 0 mm 6 mps 756 mmHg 23%
    15:00 +32°C° 0 mm 6 mps 756 mmHg 22%
    16:00 +32°C° 0 mm 6 mps 756 mmHg 23%
    17:00 +30°C° 0 mm 6 mps 756 mmHg 24%
    18:00 +29°C° 0 mm 6 mps 756 mmHg 25%
    19:00 +28°C° 0 mm 6 mps 756 mmHg 27%
    20:00 +26°C° 0 mm 5 mps 756 mmHg 30%
    21:00 +23°C° 0 mm 5 mps 756 mmHg 32%
    22:00 +22°C° 0 mm 5 mps 757 mmHg 33%
    23:00 +22°C° 0 mm 5 mps 757 mmHg 34%

    20 August, Monday

    Time Temperature Precipitation Wind Pressure Humidity
    00:00 +21°C° 0 mm 4 mps 757 mmHg 35%
    01:00 +20°C° 0 mm 4 mps 757 mmHg 37%
    02:00 +19°C° 0 mm 4 mps 757 mmHg 38%
    03:00 +19°C° 0 mm 4 mps 757 mmHg 40%
    04:00 +18°C° 0 mm 4 mps 757 mmHg 41%
    05:00 +18°C° 0 mm 4 mps 757 mmHg 42%
    06:00 +17°C° 0 mm 3 mps 757 mmHg 44%
    07:00 +20°C° 0 mm 4 mps 757 mmHg 38%
    08:00 +23°C° 0 mm 4 mps 757 mmHg 32%
    09:00 +26°C° 0 mm 5 mps 757 mmHg 26%
    10:00 +27°C° 0 mm 5 mps 757 mmHg 24%
    11:00 +29°C° 0 mm 5 mps 757 mmHg 22%
    12:00 +30°C° 0 mm 5 mps 757 mmHg 19%
    13:00 +30°C° 0 mm 5 mps 756 mmHg 19%
    14:00 +32°C° 0 mm 5 mps 756 mmHg 18%
    15:00 +33°C° 0 mm 5 mps 756 mmHg 18%
    16:00 +32°C° 0 mm 5 mps 756 mmHg 19%
    17:00 +30°C° 0 mm 5 mps 756 mmHg 20%
    18:00 +30°C° 0 mm 4 mps 756 mmHg 21%
    19:00 +28°C° 0 mm 4 mps 756 mmHg 24%
    20:00 +25°C° 0 mm 4 mps 756 mmHg 28%
    21:00 +22°C° 0 mm 3 mps 756 mmHg 31%
    22:00 +22°C° 0 mm 3 mps 756 mmHg 32%
    23:00 +21°C° 0 mm 3 mps 756 mmHg 33%
    Show more